[[{"header":{"parameterUnit":"m.s-1","parameterCategory":1,"la1":30.2991,"la2":30.254,"lo1":-89.0895,"lo2":-89.0444,"dy":0.0017,"dx":0.0017,"nx":28,"ny":28,"refTime":"2023-10-26T21:00:00:Z","depth":0,"parameterNumber":2,"parameterNumberName":"U-component_of_WINDS"},"data":[0,0,0,0,0,0,0,0,0,0,0,0,0,0,0,0,0,0,0,0,0,0,0,0,0,0,0,0,0,0,0,0,0,0,0,0,0,0,0,0,0,0,0,0,0,0,0,0,0,0,0,0,0,0,0,0,0,0,-3.5661,-3.5661,0,-3.5596,-3.5595,-3.5594,-3.5497,-3.5496,-3.5494,-3.5492,-3.5426,-3.5425,-3.5425,0,0,0,0,0,0,0,0,0,0,0,0,0,-3.5705,-3.5704,-3.5661,-3.5661,-3.566,-3.5596,-3.5595,-3.5594,-3.5498,-3.5495,-3.5493,-3.5491,-3.5426,-3.5425,-3.5425,0,0,0,0,0,0,0,0,0,0,0,0,0,-3.5667,-3.5704,-3.5662,-3.5604,-3.5598,-3.5596,-3.5595,-3.5594,-3.5498,-3.5495,-3.5493,-3.549,-3.5426,-3.5425,-3.5425,-3.5475,0,0,-3.5424,-3.5424,0,0,0,0,0,0,0,0,-3.5669,-3.5666,-3.5613,-3.5608,-3.5601,-3.5552,-3.5586,-3.5554,-3.5499,-3.5536,-3.5492,-3.5489,-3.547,-3.5466,-3.5459,-3.5471,-3.5469,-3.5424,-3.5424,-3.5424,-3.5424,0,0,0,0,0,0,0,-3.5672,-3.5668,-3.5635,-3.5613,-3.5605,-3.5582,-3.5574,-3.5579,-3.5518,-3.5533,-3.5525,-3.5519,-3.5466,-3.546,-3.5457,-3.5468,-3.5424,-3.5424,-3.5424,-3.5424,-3.5519,-3.5522,0,0,0,0,0,0,-3.5683,-3.5671,-3.5638,-3.5633,-3.563,-3.5583,-3.5574,-3.557,-3.5518,-3.5507,-3.5521,-3.5515,-3.5461,-3.5457,-3.5454,-3.5509,-3.5424,-3.5424,-3.5424,-3.5516,-3.552,-3.5522,0,0,0,0,0,0,-3.5684,-3.5681,-3.564,-3.565,-3.5643,-3.5585,-3.5582,-3.5571,-3.5564,-3.5509,-3.5498,-3.5526,-3.5459,-3.5454,-3.547,-3.5505,-3.5424,-3.5423,-3.5513,-3.5517,-3.5521,-3.562,0,0,0,0,0,0,-3.5686,-3.5682,-3.57,-3.5651,-3.5643,-3.5658,-3.5584,-3.5571,-3.5564,-3.5554,-3.551,-3.55,-3.5457,-3.5471,-3.547,-3.5504,-3.5423,-3.551,-3.5515,-3.552,-3.5613,-3.5627,-3.5638,0,0,0,0,0,-3.5688,-3.573,-3.5701,-3.5698,-3.5664,-3.566,-3.5655,-3.5604,-3.5567,-3.5584,-3.555,-3.5502,-3.5502,-3.5474,-3.5472,-3.5506,-3.5507,-3.5513,-3.5519,-3.5607,-3.5624,-3.5638,0,0,0,0,0,0,-3.5784,-3.5722,-3.569,-3.5717,-3.5695,-3.5643,-3.5664,-3.5623,-3.561,-3.5602,-3.5539,-3.553,-3.5554,-3.5531,-3.5501,-3.5552,-3.5497,-3.5503,-3.5565,-3.5581,-3.5593,-3.5598,-3.5423,0,0,0,0,0,-3.5808,-3.581,-3.5756,-3.5786,-3.5776,-3.5722,-3.5718,-3.5681,-3.5655,-3.5645,-3.5611,-3.5588,-3.5582,-3.558,-3.5572,-3.561,-3.5599,-3.5632,-3.5645,-3.5655,-3.5661,-3.5681,-3.5695,-3.5542,-3.5542,-3.5542,0,0,-3.5858,-3.5825,-3.583,-3.5804,-3.5782,-3.5786,-3.5715,-3.5721,-3.5723,-3.5646,-3.5659,-3.5634,-3.5604,-3.5631,-3.5641,-3.5613,-3.5701,-3.5663,-3.5672,-3.5672,-3.5688,-3.5703,-3.5716,-3.5547,-3.5546,-3.5545,0,0,-3.5952,-3.5926,-3.5949,-3.5928,-3.5896,-3.586,-3.5866,-3.5822,-3.5802,-3.5814,-3.5757,-3.5759,-3.5751,-3.5732,-3.5722,-3.5811,-3.5767,-3.581,-3.5876,-3.5896,-3.5908,-3.5918,-3.595,-3.5963,-3.5816,-3.5816,-3.5816,0,-3.6018,-3.602,-3.5965,-3.5976,-3.5967,-3.5897,-3.592,-3.5903,-3.587,-3.5866,-3.5835,-3.5824,-3.5799,-3.5822,-3.5844,-3.5837,-3.5843,-3.5814,-3.591,-3.592,-3.5929,-3.5959,-3.5972,-3.5822,-3.5821,-3.5821,-3.582,0,-3.6104,-3.6107,-3.6129,-3.61,-3.6093,-3.611,-3.6058,-3.6058,-3.6022,-3.599,-3.6005,-3.5972,-3.5958,-3.596,-3.5925,-3.5979,-3.5962,-3.5922,-3.5866,-3.595,-3.5977,-3.5989,-3.583,-3.5828,-3.5826,-3.5825,0,0,-3.6254,-3.6196,-3.6205,-3.6191,-3.6151,-3.6153,-3.6167,-3.6153,-3.6155,-3.6135,-3.6146,-3.6142,-3.6104,-3.6093,-3.6055,-3.6072,-3.6146,-3.6029,-3.6028,-3.6053,-3.6205,-3.6236,-3.625,-3.6117,-3.6119,-3.6121,-3.6208,0,-3.634,-3.636,-3.6312,-3.6345,-3.6347,-3.6283,-3.6295,-3.6273,-3.6244,-3.6243,-3.6211,-3.621,-3.616,-3.6153,-3.6167,-3.6134,-3.6176,-3.6127,-3.6127,-3.6128,-3.6137,-3.6264,-3.6297,-3.638,-3.6218,-3.622,-3.6221,0,-3.6442,-3.6428,-3.6461,-3.6421,-3.642,-3.6433,-3.6416,-3.6416,-3.639,-3.6368,-3.6356,-3.6312,-3.6324,-3.6272,-3.6288,-3.6256,-3.6254,-3.6238,-3.624,-3.6238,-3.618,-3.6266,-3.6405,-3.6418,-3.6237,-3.6236,-3.6235,0,-3.6549,-3.6538,-3.6557,-3.6547,-3.6501,-3.6511,-3.6493,-3.6464,-3.6459,-3.6446,-3.6442,-3.643,-3.6424,-3.6416,-3.637,-3.6336,-3.6393,-3.6336,-3.6376,-3.6377,-3.639,-3.639,-3.6531,-3.6389,-3.6388,-3.6388,-3.6388,0,-3.6649,-3.6672,-3.6605,-3.6616,-3.6641,-3.6586,-3.6612,-3.6587,-3.6562,-3.6569,-3.6512,-3.6519,-3.6459,-3.646,-3.6425,-3.6444,-3.6442,-3.6425,-3.6415,-3.643,-3.6432,-3.6427,-3.642,-3.6391,-3.6391,-3.639,-3.639,0,-3.6772,-3.6728,-3.6744,-3.67,-3.6689,-3.6709,-3.6671,-3.6681,-3.6649,-3.6658,-3.6657,-3.6608,-3.6606,-3.656,-3.6549,-3.6525,-3.656,-3.6539,-3.6569,-3.6562,-3.6605,-3.6602,-3.6748,-3.6765,-3.6612,-3.6613,-3.6615,0,-3.6839,-3.6855,-3.6813,-3.6813,-3.6797,-3.6798,-3.6793,-3.6741,-3.6738,-3.6711,-3.6724,-3.6718,-3.671,-3.6711,-3.6675,-3.6666,-3.6645,-3.6697,-3.6644,-3.6659,-3.6647,-3.6647,-3.6649,-3.6709,-3.6711,-3.6712,-3.6713,0,-3.6962,-3.694,-3.6935,-3.6923,-3.6919,-3.6907,-3.6892,-3.6895,-3.6838,-3.6838,-3.6836,-3.683,-3.6819,-3.6815,-3.68,-3.6781,-3.6739,-3.6731,-3.674,-3.6755,-3.6772,-3.6764,-3.66,-3.6728,-3.6726,-3.6725,-3.6724,-3.6724,-3.7059,-3.7071,-3.7044,-3.7041,-3.7024,-3.7011,-3.7018,-3.6988,-3.6986,-3.6973,-3.6942,-3.6946,-3.6921,-3.6897,-3.6883,-3.6885,-3.6859,-3.6871,-3.6875,-3.6879,-3.6887,-3.6772,-3.6882,-3.6882,-3.6881,-3.6881,-3.688,0,-3.718,-3.716,-3.7158,-3.7138,-3.7136,-3.7097,-3.7078,-3.7079,-3.7083,-3.7064,-3.7058,-3.7057,-3.7052,-3.7016,-3.7008,-3.7017,-3.6998,-3.7017,-3.7016,-3.7012,-3.6911,-3.6904,-3.7033,-3.7033,-3.7033,-3.7033,-3.7033,-3.7033,-3.7243,-3.7262,-3.7237,-3.7247,-3.7227,-3.723,-3.7223,-3.7211,-3.7196,-3.7197,-3.7193,-3.717,-3.7145,-3.7135,-3.713,-3.7119,-3.7119,-3.7145,-3.7129,-3.7034,-3.7019,-3.7005,-3.6999,-3.7146,-3.7146,-3.723,-3.7231,-3.7231]},{"header":{"parameterUnit":"m.s-1","parameterCategory":1,"la1":30.2991,"la2":30.254,"lo1":-89.0895,"lo2":-89.0444,"dy":0.0017,"dx":0.0017,"nx":28,"ny":28,"refTime":"2023-10-26T21:00:00:Z","depth":0,"parameterNumber":3,"parameterNumberName":"V-component_of_WINDS"},"data":[0,0,0,0,0,0,0,0,0,0,0,0,0,0,0,0,0,0,0,0,0,0,0,0,0,0,0,0,0,0,0,0,0,0,0,0,0,0,0,0,0,0,0,0,0,0,0,0,0,0,0,0,0,0,0,0,0,0,0.4046,0.4045,0,0.3972,0.3971,0.397,0.4035,0.4037,0.404,0.4043,0.3963,0.3959,0.3954,0,0,0,0,0,0,0,0,0,0,0,0,0,0.424,0.4236,0.4046,0.4045,0.4044,0.3972,0.3971,0.397,0.4034,0.4038,0.4041,0.4044,0.3965,0.3959,0.3954,0,0,0,0,0,0,0,0,0,0,0,0,0,0.416,0.4235,0.4046,0.4068,0.4069,0.3973,0.3971,0.397,0.4034,0.4038,0.4042,0.4045,0.3967,0.396,0.3953,0.3831,0,0,0.3932,0.3929,0,0,0,0,0,0,0,0,0.4164,0.4153,0.4065,0.4066,0.4067,0.4017,0.4011,0.3923,0.4033,0.4047,0.4043,0.4047,0.3978,0.397,0.3947,0.3827,0.3824,0.3931,0.3927,0.3924,0.3922,0,0,0,0,0,0,0,0.417,0.4156,0.4017,0.4064,0.4065,0.408,0.4073,0.3994,0.3991,0.4046,0.405,0.4041,0.3979,0.3954,0.3946,0.3822,0.3932,0.3926,0.3921,0.3919,0.3598,0.3594,0,0,0,0,0,0,0.4173,0.416,0.4019,0.4015,0.4127,0.4073,0.4066,0.4029,0.3992,0.399,0.4038,0.4044,0.3964,0.3954,0.3943,0.3798,0.3924,0.3918,0.3914,0.3603,0.3598,0.3593,0,0,0,0,0,0,0.4177,0.416,0.4022,0.4089,0.4072,0.4066,0.4024,0.4025,0.4,0.3986,0.3985,0.4013,0.3966,0.3953,0.3859,0.3796,0.3915,0.3909,0.3608,0.3601,0.3595,0.3505,0,0,0,0,0,0,0.4183,0.4161,0.4115,0.4087,0.4068,0.3939,0.402,0.4021,0.3989,0.3997,0.3962,0.396,0.3969,0.3869,0.3852,0.3789,0.3903,0.3614,0.3605,0.3597,0.3514,0.3496,0.3482,0,0,0,0,0,0.4189,0.4092,0.4113,0.4095,0.4011,0.3935,0.3924,0.3937,0.3984,0.3937,0.3927,0.3961,0.3806,0.3858,0.384,0.3774,0.3618,0.3607,0.3598,0.3521,0.35,0.3482,0,0,0,0,0,0,0.4111,0.4089,0.4111,0.4002,0.397,0.3946,0.3888,0.3914,0.3867,0.3877,0.3893,0.3885,0.3785,0.377,0.3829,0.3654,0.3719,0.3705,0.3667,0.3647,0.3631,0.3636,0.3897,0,0,0,0,0,0.4081,0.4023,0.4006,0.3911,0.3894,0.3894,0.3861,0.3874,0.3841,0.3827,0.3811,0.3777,0.3721,0.3683,0.363,0.3512,0.3506,0.3458,0.3442,0.3429,0.3416,0.3352,0.3331,0.356,0.3561,0.3561,0,0,0.4019,0.3999,0.3961,0.3895,0.3872,0.381,0.3882,0.3813,0.3767,0.3817,0.3727,0.3714,0.3677,0.357,0.3522,0.3554,0.3351,0.3416,0.3406,0.34,0.334,0.3318,0.3299,0.3554,0.3555,0.3556,0,0,0.3873,0.3853,0.3772,0.3748,0.3712,0.3713,0.3693,0.3665,0.3659,0.357,0.3606,0.3551,0.3453,0.3426,0.3399,0.3244,0.3273,0.3227,0.3142,0.308,0.3062,0.3046,0.299,0.297,0.3214,0.3214,0.3214,0,0.3799,0.3708,0.3726,0.3655,0.3625,0.3669,0.3587,0.3562,0.351,0.3488,0.3526,0.3405,0.3383,0.3271,0.3233,0.321,0.3188,0.323,0.3063,0.3047,0.3033,0.298,0.2959,0.3209,0.3209,0.321,0.321,0,0.3619,0.3556,0.3495,0.3445,0.3408,0.3332,0.3337,0.3298,0.3314,0.331,0.3218,0.3194,0.3138,0.3112,0.3127,0.3001,0.3023,0.3061,0.3127,0.3005,0.2955,0.2935,0.3201,0.3203,0.3204,0.3206,0,0,0.342,0.3384,0.336,0.3339,0.3304,0.3255,0.3181,0.3127,0.3092,0.3055,0.2993,0.291,0.2946,0.2916,0.2928,0.2873,0.2752,0.2919,0.2918,0.2888,0.2612,0.2582,0.2559,0.2772,0.2768,0.2765,0.2615,0,0.3273,0.3145,0.3159,0.3036,0.2978,0.302,0.2955,0.2926,0.2921,0.2869,0.2864,0.2804,0.2857,0.2839,0.2787,0.2777,0.2696,0.2789,0.2713,0.271,0.2719,0.2533,0.2501,0.236,0.2596,0.2592,0.259,0,0.3083,0.3041,0.2913,0.2888,0.2864,0.2806,0.2758,0.2709,0.2677,0.2677,0.2643,0.2665,0.259,0.2659,0.2555,0.2617,0.2587,0.2578,0.2573,0.2565,0.2641,0.2519,0.2316,0.2294,0.256,0.2562,0.2564,0,0.295,0.2862,0.2774,0.2754,0.2723,0.2681,0.2666,0.2638,0.2605,0.2563,0.2541,0.249,0.2462,0.2422,0.2429,0.2478,0.2323,0.2392,0.232,0.2319,0.2284,0.2286,0.2072,0.2266,0.2266,0.2267,0.2267,0,0.2783,0.2703,0.2714,0.266,0.2571,0.2588,0.25,0.249,0.2465,0.2409,0.2442,0.2388,0.2402,0.2348,0.2354,0.2266,0.2253,0.2251,0.2253,0.2247,0.2247,0.2227,0.2236,0.2261,0.2262,0.2263,0.2264,0,0.2619,0.2623,0.253,0.2509,0.2501,0.2437,0.2418,0.2367,0.2365,0.2294,0.2278,0.2274,0.2214,0.2218,0.2148,0.2152,0.2044,0.2058,0.2055,0.2058,0.1985,0.1991,0.1749,0.1718,0.1933,0.1931,0.193,0,0.2511,0.2451,0.2424,0.2389,0.2372,0.2315,0.2282,0.2297,0.2261,0.2221,0.2174,0.2117,0.2071,0.1972,0.1963,0.191,0.1922,0.1841,0.1914,0.1911,0.192,0.1923,0.1917,0.1826,0.1824,0.1822,0.182,0,0.232,0.2326,0.2278,0.223,0.219,0.2152,0.2119,0.2088,0.21,0.2057,0.1996,0.1961,0.1892,0.1834,0.1784,0.1767,0.1795,0.1798,0.1778,0.1771,0.1771,0.177,0.2015,0.1803,0.1805,0.1806,0.1807,0.1807,0.2181,0.2129,0.2102,0.2047,0.2024,0.1992,0.1942,0.1935,0.1885,0.183,0.1842,0.1773,0.1744,0.168,0.1658,0.1604,0.1633,0.1605,0.1597,0.159,0.1581,0.1781,0.1595,0.1596,0.1596,0.1597,0.1597,0,0.1991,0.1976,0.1925,0.1878,0.1835,0.1867,0.1831,0.1792,0.1732,0.1702,0.1658,0.1587,0.1532,0.1519,0.1465,0.1424,0.1436,0.141,0.1412,0.1408,0.1559,0.1581,0.1402,0.1402,0.1402,0.1402,0.1402,0.1402,0.1887,0.1801,0.1804,0.1707,0.1692,0.1626,0.1603,0.1573,0.155,0.1471,0.1425,0.1418,0.1395,0.134,0.129,0.1288,0.1266,0.1235,0.1237,0.1378,0.1397,0.1416,0.1437,0.123,0.123,0.1091,0.109,0.1089]}]]